Location: Grabów nad Wisłą
(51.3552°N, 21.6752°E)
Time: 10:45:15
(UTC+02:00)

ISS - Visible Passes

Search period start: 22 September 2018 00:00
Search period end: 02 October 2018 00:00
Orbit: 403 x 408 km, 51.6° (Epoch: 22 September)

Date Brightness Start Highest point End Pass type
(mag) Time Alt. Az. Time Alt. Az. Time Alt. Az.
22 Sep -1.5 20:28:06 10° SSW 20:28:50 14° SSW 20:28:50 14° SSW visible
23 Sep -2.1 19:36:58 10° S 19:39:10 17° SE 19:39:34 17° SE visible
23 Sep -1.0 21:11:57 10° WSW 21:12:17 12° WSW 21:12:17 12° WSW visible
24 Sep -3.1 20:20:13 10° SW 20:22:49 38° S 20:22:49 38° S visible
25 Sep -2.8 19:28:39 10° SSW 19:31:33 29° SSE 19:33:12 19° ESE visible
25 Sep -1.6 21:04:31 10° WSW 21:05:53 23° WSW 21:05:53 23° WSW visible
26 Sep -3.9 20:12:38 10° WSW 20:15:55 67° SSE 20:16:08 64° SE visible
27 Sep -3.5 19:20:49 10° SW 19:24:01 49° SSE 19:26:17 17° E visible
27 Sep -2.0 20:57:08 10° W 20:58:58 30° W 20:58:58 30° W visible
28 Sep -3.9 20:05:09 10° W 20:08:28 88° SSE 20:09:02 59° E visible
29 Sep -3.8 19:13:12 10° WSW 19:16:30 74° SSE 19:19:03 16° E visible
29 Sep -2.2 20:49:42 10° W 20:51:43 34° W 20:51:43 34° W visible
30 Sep -3.9 19:57:42 10° W 20:01:01 83° N 20:01:42 53° E visible
30 Sep -0.4 21:34:14 10° W 21:34:21 11° W 21:34:21 11° W visible
01 Oct -3.8 19:05:41 10° W 19:09:00 88° N 19:11:39 15° E visible
01 Oct -2.3 20:42:14 10° W 20:44:18 36° W 20:44:18 36° W visible
